Location: Round Knob
(37.2473°N, 88.7376°W)
Time: 14:25:53
(UTC+00:00)

CZ-4B R/B - Pass Details

Date: 29 October 2020
Orbit: 808 x 882 km, 99.1° (Epoch: 03 December)

Event Time Altitude Azimuth Distance (km) Brightness Sun altitude
Rises 23:25:56 0° 168° (SSE) 3,455 6.4 -5.9°
Reaches altitude 10° 23:28:19 10° 170° (S) 2,514 5.7 -6.3°
Maximum altitude 23:33:55 77° 257° (WSW) 888 3.5 -7.4°
Drops below altitude 10° 23:39:27 10° 343° (NNW) 2,487 5.7 -8.5°
Sets 23:41:49 0° 345° (NNW) 3,415 6.4 -9.0°
